,,Stat6,,Stat2,,Stat8,,Stat9,,Stat10,,Wind1,,Wind1,
time,status,PA1M_AVG,status,PR1M_SUM,status,RH1M_AVG,status,SR1M_AVG,status,TA1M_AVG,status,W1dAve1m,status,W1sAve1m,
2008-10-11, 00:00:00,VALID,918.344,VALID,0,VALID,100,VALID,-0.0679233,VALID,20.3233,VALID,152,VALID,0,
2008-10-11, 00:01:00,VALID,918.342,VALID,0,VALID,100,VALID,-0.0849042,VALID,20.3171,VALID,152,VALID,0,
2008-10-11, 00:02:00,VALID,918.332,VALID,0,VALID,100,VALID,-0.0339617,VALID,20.3099,VALID,152,VALID,0,
2008-10-11, 00:03:00,VALID,918.331,VALID,0,VALID,100,VALID,-0.101885,VALID,20.2707,VALID,152,VALID,0,
2008-10-11, 00:04:00,VALID,918.315,VALID,0,VALID,100,VALID,-0.0169808,VALID,20.2412,VALID,152,VALID,0,
2008-10-11, 00:05:00,VALID,918.296,VALID,0,VALID,100,VALID,0.0169808,VALID,20.228,VALID,152,VALID,0,
2008-10-11, 00:06:00,VALID,918.285,VALID,0,VALID,100,VALID,0.0339617,VALID,20.2045,VALID,152,VALID,0,
2008-10-11, 00:07:00,VALID,918.27,VALID,0,VALID,100,VALID,0.0509425,VALID,20.2145,VALID,152,VALID,0,
2008-10-11, 00:08:00,VALID,918.264,VALID,0,VALID,100,VALID,0.0169808,VALID,20.198,VALID,152,VALID,0,
2008-10-11, 00:09:00,VALID,918.257,VALID,0,VALID,100,VALID,0,VALID,20.1955,VALID,152,VALID,0,
2008-10-11, 00:10:00,VALID,918.254,VALID,0,VALID,100,VALID,0,VALID,20.1985,VALID,152,VALID,0,
2008-10-11, 00:11:00,VALID,918.24,VALID,0,VALID,100,VALID,0.0339617,VALID,20.195,VALID,152,VALID,0,
2008-10-11, 00:12:00,VALID,918.241,VALID,0,VALID,100,VALID,0.0509425,VALID,20.1912,VALID,152,VALID,0,
2008-10-11, 00:13:00,VALID,918.231,VALID,0,VALID,100,VALID,0,VALID,20.1982,VALID,152,VALID,0,
2008-10-11, 00:14:00,VALID,918.227,VALID,0,VALID,100,VALID,0.0339617,VALID,20.1882,VALID,152,VALID,0,
2008-10-11, 00:15:00,VALID,918.224,VALID,0,VALID,100,VALID,0.0509425,VALID,20.1753,VALID,152,VALID,0,
2008-10-11, 00:16:00,VALID,918.208,VALID,0,VALID,100,VALID,0.0509425,VALID,20.1558,VALID,152,VALID,0,
2008-10-11, 00:17:00,VALID,918.195,VALID,0,VALID,100,VALID,0.0339617,VALID,20.1368,VALID,152,VALID,0,
2008-10-11, 00:18:00,VALID,918.181,VALID,0,VALID,100,VALID,0.0509425,VALID,20.1069,VALID,152,VALID,0,
2008-10-11, 00:19:00,VALID,918.165,VALID,0,VALID,100,VALID,0.0169808,VALID,20.0814,VALID,161,VALID,0,
2008-10-11, 00:20:00,VALID,918.144,VALID,0,VALID,100,VALID,-0.0339617,VALID,20.06,VALID,161,VALID,0,
2008-10-11, 00:21:00,VALID,918.109,VALID,0,VALID,100,VALID,-0.0509425,VALID,20.0408,VALID,161,VALID,0,
2008-10-11, 00:22:00,VALID,918.091,VALID,0,VALID,100,VALID,-0.0509425,VALID,20.018,VALID,161,VALID,0,
2008-10-11, 00:23:00,VALID,918.077,VALID,0,VALID,100,VALID,-0.0339617,VALID,19.9983,VALID,159,VALID,0,
2008-10-11, 00:24:00,VALID,918.06,VALID,0,VALID,100,VALID,0,VALID,19.9596,VALID,152,VALID,0,
2008-10-11, 00:25:00,VALID,918.053,VALID,0,VALID,100,VALID,-0.0169808,VALID,19.9559,VALID,124,VALID,0.446733,
2008-10-11, 00:26:00,VALID,918.051,VALID,0,VALID,100,VALID,-0.0509425,VALID,19.9594,VALID,118,VALID,0.00952744,
2008-10-11, 00:27:00,VALID,918.046,VALID,0,VALID,100,VALID,-0.0679233,VALID,19.9464,VALID,118,VALID,0,
2008-10-11, 00:28:00,VALID,918.029,VALID,0,VALID,100,VALID,-0.0509425,VALID,19.9434,VALID,118,VALID,0.00130208,
2008-10-11, 00:29:00,VALID,918.014,VALID,0,VALID,100,VALID,-0.0169808,VALID,19.9464,VALID,118,VALID,0,
2008-10-11, 00:30:00,VALID,917.996,VALID,0,VALID,100,VALID,-0.0169808,VALID,19.9496,VALID,118,VALID,0,
2008-10-11, 00:31:00,VALID,917.993,VALID,0,VALID,100,VALID,-0.0169808,VALID,19.9534,VALID,118,VALID,0,
2008-10-11, 00:32:00,VALID,917.991,VALID,0,VALID,100,VALID,-0.0169808,VALID,19.9429,VALID,118,VALID,0,
2008-10-11, 00:33:00,VALID,917.98,VALID,0,VALID,100,VALID,-0.0679233,VALID,19.9239,VALID,118,VALID,0,
2008-10-11, 00:34:00,VALID,917.974,VALID,0,VALID,100,VALID,-0.0339617,VALID,19.9107,VALID,118,VALID,0,
2008-10-11, 00:35:00,VALID,917.964,VALID,0,VALID,100,VALID,-0.0339617,VALID,19.9037,VALID,118,VALID,0,
2008-10-11, 00:36:00,VALID,917.948,VALID,0,VALID,100,VALID,-0.0169808,VALID,19.894,VALID,118,VALID,0,
2008-10-11, 00:37:00,VALID,917.945,VALID,0,VALID,100,VALID,-0.0509425,VALID,19.9012,VALID,118,VALID,0,
2008-10-11, 00:38:00,VALID,917.95,VALID,0,VALID,100,VALID,-0.0339617,VALID,19.9007,VALID,118,VALID,0,
2008-10-11, 00:39:00,VALID,917.96,VALID,0,VALID,100,VALID,-0.0169808,VALID,19.9202,VALID,118,VALID,0,
2008-10-11, 00:40:00,VALID,917.972,VALID,0,VALID,100,VALID,-0.0169808,VALID,19.891,VALID,118,VALID,0,
2008-10-11, 00:41:00,VALID,917.975,VALID,0,VALID,100,VALID,0,VALID,19.8521,VALID,118,VALID,0,
2008-10-11, 00:42:00,VALID,917.997,VALID,0,VALID,100,VALID,-0.0169808,VALID,19.7934,VALID,118,VALID,0,
2008-10-11, 00:43:00,VALID,918.005,VALID,0,VALID,100,VALID,-0.0509425,VALID,19.7482,VALID,118,VALID,0,
2008-10-11, 00:44:00,VALID,918.006,VALID,0,VALID,100,VALID,-0.0509425,VALID,19.7382,VALID,118,VALID,0,
2008-10-11, 00:45:00,VALID,917.974,VALID,0,VALID,100,VALID,-0.0339617,VALID,19.7447,VALID,118,VALID,0,
2008-10-11, 00:46:00,VALID,917.955,VALID,0,VALID,100,VALID,-0.0339617,VALID,19.7382,VALID,118,VALID,0,
2008-10-11, 00:47:00,VALID,917.938,VALID,0,VALID,100,VALID,-0.0339617,VALID,19.7512,VALID,119,VALID,0,
2008-10-11, 00:48:00,VALID,917.905,VALID,0,VALID,100,VALID,-0.0339617,VALID,19.7709,VALID,119,VALID,0,
2008-10-11, 00:49:00,VALID,917.901,VALID,0,VALID,100,VALID,0,VALID,19.7647,VALID,119,VALID,0,
2008-10-11, 00:50:00,VALID,917.892,VALID,0,VALID,100,VALID,-0.0169808,VALID,19.7482,VALID,119,VALID,0,
2008-10-11, 00:51:00,VALID,917.883,VALID,0,VALID,100,VALID,-0.0509425,VALID,19.7063,VALID,119,VALID,0,
2008-10-11, 00:52:00,VALID,917.859,VALID,0,VALID,100,VALID,-0.0169808,VALID,19.6214,VALID,119,VALID,0,
2008-10-11, 00:53:00,VALID,917.839,VALID,0,VALID,100,VALID,0,VALID,19.5733,VALID,101,VALID,0,
2008-10-11, 00:54:00,VALID,917.82,VALID,0,VALID,100,VALID,-0.0849042,VALID,19.5698,VALID,95,VALID,0.282738,
2008-10-11, 00:55:00,VALID,917.804,VALID,0,VALID,100,VALID,-0.0169808,VALID,19.5795,VALID,95,VALID,0.00230824,
2008-10-11, 00:56:00,VALID,917.792,VALID,0,VALID,100,VALID,-0.0339617,VALID,19.6119,VALID,95,VALID,0,
2008-10-11, 00:57:00,VALID,917.793,VALID,0,VALID,100,VALID,-0.0169808,VALID,19.6451,VALID,96,VALID,0,
2008-10-11, 00:58:00,VALID,917.795,VALID,0,VALID,100,VALID,-0.0849042,VALID,19.6733,VALID,105,VALID,0,
2008-10-11, 00:59:00,VALID,917.796,VALID,0,VALID,100,VALID,-0.0169808,VALID,19.6671,VALID,114,VALID,0.0949929,
2008-10-11, 01:00:00,VALID,917.791,VALID,0,VALID,100,VALID,-0.0169808,VALID,19.6541,VALID,120,VALID,0,
2008-10-11, 01:01:00,VALID,917.78,VALID,0,VALID,100,VALID,-0.0169808,VALID,19.6412,VALID,128,VALID,0,
2008-10-11, 01:02:00,VALID,917.782,VALID,0,VALID,100,VALID,0,VALID,19.6444,VALID,136,VALID,0,
2008-10-11, 01:03:00,VALID,917.774,VALID,0,VALID,100,VALID,0,VALID,19.6377,VALID,140,VALID,0.854721,
2008-10-11, 01:04:00,VALID,917.763,VALID,0,VALID,100,VALID,0,VALID,19.6441,VALID,141,VALID,0.681548,
2008-10-11, 01:05:00,VALID,917.753,VALID,0,VALID,100,VALID,-0.0339617,VALID,19.6504,VALID,144,VALID,0.986192,
2008-10-11, 01:06:00,VALID,917.747,VALID,0,VALID,100,VALID,-0.0169808,VALID,19.6506,VALID,139,VALID,1.13583,
2008-10-11, 01:07:00,VALID,917.728,VALID,0,VALID,100,VALID,-0.0169808,VALID,19.6606,VALID,144,VALID,1.1456,
2008-10-11, 01:08:00,VALID,917.699,VALID,0,VALID,100,VALID,0,VALID,19.6798,VALID,142,VALID,0.874273,
2008-10-11, 01:09:00,VALID,917.672,VALID,0,VALID,100,VALID,-0.0169808,VALID,19.6601,VALID,138,VALID,0.694754,
2008-10-11, 01:10:00,VALID,917.646,VALID,0,VALID,100,VALID,-0.0169808,VALID,19.6636,VALID,154,VALID,0.394531,
2008-10-11, 01:11:00,VALID,917.636,VALID,0,VALID,100,VALID,-0.0169808,VALID,19.6539,VALID,164,VALID,0.203869,
2008-10-11, 01:12:00,VALID,917.623,VALID,0,VALID,100,VALID,-0.0169808,VALID,19.6536,VALID,164,VALID,0,
2008-10-11, 01:13:00,VALID,917.623,VALID,0,VALID,100,VALID,-0.0169808,VALID,19.6766,VALID,154,VALID,0.691315,
2008-10-11, 01:14:00,VALID,917.624,VALID,0,VALID,100,VALID,-0.0509425,VALID,19.6838,VALID,151,VALID,0.613735,
2008-10-11, 01:15:00,VALID,917.629,VALID,0,VALID,100,VALID,-0.0169808,VALID,19.6798,VALID,160,VALID,0.905035,
2008-10-11, 01:16:00,VALID,917.627,VALID,0,VALID,100,VALID,0,VALID,19.6863,VALID,162,VALID,0.819922,
2008-10-11, 01:17:00,VALID,917.618,VALID,0,VALID,100,VALID,-0.0509425,VALID,19.6961,VALID,162,VALID,0.5625,
2008-10-11, 01:18:00,VALID,917.597,VALID,0,VALID,100,VALID,-0.0339617,VALID,19.7123,VALID,159,VALID,0.00236192,
2008-10-11, 01:19:00,VALID,917.568,VALID,0,VALID,100,VALID,-0.0169808,VALID,19.7255,VALID,167,VALID,0.0851562,
2008-10-11, 01:20:00,VALID,917.535,VALID,0,VALID,100,VALID,-0.0509425,VALID,19.7352,VALID,148,VALID,0,
2008-10-11, 01:21:00,VALID,917.518,VALID,0,VALID,100,VALID,-0.0169808,VALID,19.7617,VALID,148,VALID,0.100991,
2008-10-11, 01:22:00,VALID,917.497,VALID,0,VALID,100,VALID,-0.0169808,VALID,19.7679,VALID,147,VALID,0,
2008-10-11, 01:23:00,VALID,917.483,VALID,0,VALID,100,VALID,0,VALID,19.7612,VALID,144,VALID,0,
2008-10-11, 01:24:00,VALID,917.472,VALID,0,VALID,100,VALID,-0.0339617,VALID,19.7445,VALID,143,VALID,0,
2008-10-11, 01:25:00,VALID,917.455,VALID,0,VALID,100,VALID,0.0169808,VALID,19.7185,VALID,142,VALID,0,
2008-10-11, 01:26:00,VALID,917.447,VALID,0,VALID,100,VALID,0,VALID,19.7025,VALID,142,VALID,0,
2008-10-11, 01:27:00,VALID,917.448,VALID,0,VALID,100,VALID,-0.0339617,VALID,19.6636,VALID,142,VALID,0,
2008-10-11, 01:28:00,VALID,917.447,VALID,0,VALID,100,VALID,0,VALID,19.6379,VALID,142,VALID,0.242708,
2008-10-11, 01:29:00,VALID,917.466,VALID,0,VALID,100,VALID,0,VALID,19.6214,VALID,137,VALID,0,
2008-10-11, 01:30:00,VALID,917.472,VALID,0,VALID,100,VALID,0.0169808,VALID,19.605,VALID,120,VALID,0,
2008-10-11, 01:31:00,VALID,917.47,VALID,0,VALID,100,VALID,0,VALID,19.5565,VALID,115,VALID,0,
2008-10-11, 01:32:00,VALID,917.462,VALID,0,VALID,100,VALID,0,VALID,19.5176,VALID,109,VALID,0,
2008-10-11, 01:33:00,VALID,917.452,VALID,0,VALID,100,VALID,0,VALID,19.4592,VALID,98,VALID,0,
2008-10-11, 01:34:00,VALID,917.446,VALID,0,VALID,100,VALID,-0.0339617,VALID,19.456,VALID,104,VALID,0,
2008-10-11, 01:35:00,VALID,917.435,VALID,0,VALID,100,VALID,0,VALID,19.4365,VALID,105,VALID,0,
2008-10-11, 01:36:00,VALID,917.406,VALID,0,VALID,100,VALID,-0.0339617,VALID,19.4268,VALID,109,VALID,0,
2008-10-11, 01:37:00,VALID,917.402,VALID,0,VALID,100,VALID,-0.0339617,VALID,19.4335,VALID,111,VALID,0,
2008-10-11, 01:38:00,VALID,917.376,VALID,0,VALID,100,VALID,-0.0169808,VALID,19.417,VALID,117,VALID,0,
2008-10-11, 01:39:00,VALID,917.357,VALID,0,VALID,100,VALID,-0.0339617,VALID,19.4143,VALID,116,VALID,0,
2008-10-11, 01:40:00,VALID,917.337,VALID,0,VALID,100,VALID,-0.0339617,VALID,19.44,VALID,120,VALID,0.0666788,
2008-10-11, 01:41:00,VALID,917.324,VALID,0,VALID,100,VALID,-0.0849042,VALID,19.4662,VALID,127,VALID,0.115513,
2008-10-11, 01:42:00,VALID,917.313,VALID,0,VALID,100,VALID,-0.0169808,VALID,19.4784,VALID,142,VALID,0.214666,
2008-10-11, 01:43:00,VALID,917.299,VALID,0,VALID,100,VALID,-0.0169808,VALID,19.5051,VALID,147,VALID,0,
2008-10-11, 01:44:00,VALID,917.285,VALID,0,VALID,100,VALID,-0.0339617,VALID,19.5308,VALID,144,VALID,0.44478,
2008-10-11, 01:45:00,VALID,917.263,VALID,0,VALID,100,VALID,-0.0509425,VALID,19.5565,VALID,149,VALID,0.50327,
2008-10-11, 01:46:00,VALID,917.242,VALID,0,VALID,100,VALID,-0.0169808,VALID,19.5992,VALID,142,VALID,0.221354,
2008-10-11, 01:47:00,VALID,917.228,VALID,0,VALID,100,VALID,-0.0509425,VALID,19.6182,VALID,132,VALID,0,
2008-10-11, 01:48:00,VALID,917.223,VALID,0,VALID,100,VALID,-0.0169808,VALID,19.6212,VALID,133,VALID,0.000205592,
2008-10-11, 01:49:00,VALID,917.212,VALID,0,VALID,100,VALID,0,VALID,19.6409,VALID,151,VALID,0.00093006,
2008-10-11, 01:50:00,VALID,917.211,VALID,0,VALID,100,VALID,0,VALID,19.6441,VALID,149,VALID,0.124479,
2008-10-11, 01:51:00,VALID,917.191,VALID,0,VALID,100,VALID,-0.0339617,VALID,19.6476,VALID,167,VALID,0,
2008-10-11, 01:52:00,VALID,917.171,VALID,0,VALID,100,VALID,-0.0169808,VALID,19.6574,VALID,174,VALID,0,
2008-10-11, 01:53:00,VALID,917.164,VALID,0,VALID,100,VALID,-0.0169808,VALID,19.6604,VALID,177,VALID,0,
2008-10-11, 01:54:00,VALID,917.142,VALID,0,VALID,100,VALID,-0.0169808,VALID,19.6831,VALID,177,VALID,0,
2008-10-11, 01:55:00,VALID,917.142,VALID,0,VALID,100,VALID,0,VALID,19.6958,VALID,175,VALID,0,
2008-10-11, 01:56:00,VALID,917.128,VALID,0,VALID,100,VALID,-0.0169808,VALID,19.706,VALID,179,VALID,0,
2008-10-11, 01:57:00,VALID,917.12,VALID,0,VALID,100,VALID,-0.0339617,VALID,19.7158,VALID,190,VALID,0.19401,
2008-10-11, 01:58:00,VALID,917.122,VALID,0,VALID,100,VALID,0,VALID,19.6991,VALID,176,VALID,0,
2008-10-11, 01:59:00,VALID,917.11,VALID,0,VALID,100,VALID,-0.0509425,VALID,19.7153,VALID,173,VALID,0.0882457,
2008-10-11, 02:00:00,VALID,917.099,VALID,0,VALID,100,VALID,-0.0169808,VALID,19.7318,VALID,178,VALID,0.078125,
2008-10-11, 02:01:00,VALID,917.09,VALID,0,VALID,100,VALID,-0.0339617,VALID,19.735,VALID,178,VALID,0,
2008-10-11, 02:02:00,VALID,917.071,VALID,0,VALID,100,VALID,-0.0509425,VALID,19.742,VALID,178,VALID,0,
2008-10-11, 02:03:00,VALID,917.04,VALID,0,VALID,100,VALID,0,VALID,19.735,VALID,178,VALID,0,
2008-10-11, 02:04:00,VALID,917.018,VALID,0,VALID,100,VALID,-0.0339617,VALID,19.7417,VALID,178,VALID,0,
2008-10-11, 02:05:00,VALID,916.991,VALID,0,VALID,100,VALID,0,VALID,19.7385,VALID,178,VALID,0,
2008-10-11, 02:06:00,VALID,916.978,VALID,0,VALID,100,VALID,0,VALID,19.7315,VALID,178,VALID,0,
2008-10-11, 02:07:00,VALID,916.965,VALID,0,VALID,100,VALID,0,VALID,19.722,VALID,178,VALID,0,
2008-10-11, 02:08:00,VALID,916.942,VALID,0,VALID,100,VALID,-0.0169808,VALID,19.6863,VALID,178,VALID,0,
2008-10-11, 02:09:00,VALID,916.939,VALID,0,VALID,100,VALID,-0.0169808,VALID,19.6085,VALID,178,VALID,0,
2008-10-11, 02:10:00,VALID,916.917,VALID,0,VALID,100,VALID,-0.0169808,VALID,19.5563,VALID,178,VALID,0,
2008-10-11, 02:11:00,VALID,916.903,VALID,0,VALID,100,VALID,0,VALID,19.5079,VALID,178,VALID,0,
2008-10-11, 02:12:00,VALID,916.881,VALID,0,VALID,100,VALID,0,VALID,19.4949,VALID,60,VALID,0,
2008-10-11, 02:13:00,VALID,916.866,VALID,0,VALID,100,VALID,0,VALID,19.4557,VALID,19,VALID,0.351563,
2008-10-11, 02:14:00,VALID,916.851,VALID,0,VALID,100,VALID,-0.0339617,VALID,19.4235,VALID,7,VALID,0.753239,
2008-10-11, 02:15:00,VALID,916.828,VALID,0,VALID,100,VALID,-0.0169808,VALID,19.4008,VALID,1,VALID,0.398438,
2008-10-11, 02:16:00,VALID,916.805,VALID,0,VALID,100,VALID,0,VALID,19.3881,VALID,353,VALID,0.506373,
2008-10-11, 02:17:00,VALID,916.777,VALID,0,VALID,100,VALID,-0.0339617,VALID,19.3881,VALID,7,VALID,0.327567,
2008-10-11, 02:18:00,VALID,916.75,VALID,0,VALID,100,VALID,0,VALID,19.4008,VALID,3,VALID,0.00260417,
2008-10-11, 02:19:00,VALID,916.744,VALID,0,VALID,100,VALID,-0.0339617,VALID,19.4041,VALID,3,VALID,0.068407,
2008-10-11, 02:20:00,VALID,916.734,VALID,0,VALID,100,VALID,-0.0509425,VALID,19.4105,VALID,3,VALID,0,
2008-10-11, 02:21:00,VALID,916.735,VALID,0,VALID,100,VALID,0,VALID,19.43,VALID,10,VALID,0,
2008-10-11, 02:22:00,VALID,916.733,VALID,0,VALID,100,VALID,0,VALID,19.4333,VALID,25,VALID,0,
2008-10-11, 02:23:00,VALID,916.75,VALID,0,VALID,100,VALID,-0.0169808,VALID,19.4397,VALID,52,VALID,0,
2008-10-11, 02:24:00,VALID,916.739,VALID,0,VALID,100,VALID,-0.0169808,VALID,19.4233,VALID,52,VALID,0,
2008-10-11, 02:25:00,VALID,916.755,VALID,0,VALID,100,VALID,-0.0169808,VALID,19.3878,VALID,54,VALID,0,
2008-10-11, 02:26:00,VALID,916.756,VALID,0,VALID,100,VALID,-0.0509425,VALID,19.3616,VALID,89,VALID,0.102706,
2008-10-11, 02:27:00,VALID,916.759,VALID,0,VALID,100,VALID,0,VALID,19.3489,VALID,89,VALID,0,
2008-10-11, 02:28:00,VALID,916.758,VALID,0,VALID,100,VALID,-0.0169808,VALID,19.3392,VALID,89,VALID,0,
2008-10-11, 02:29:00,VALID,916.748,VALID,0,VALID,100,VALID,0,VALID,19.3392,VALID,89,VALID,0,
2008-10-11, 02:30:00,VALID,916.751,VALID,0,VALID,100,VALID,0,VALID,19.3257,VALID,89,VALID,0,
2008-10-11, 02:31:00,VALID,916.734,VALID,0,VALID,100,VALID,-0.0169808,VALID,19.3394,VALID,89,VALID,0,
2008-10-11, 02:32:00,VALID,916.729,VALID,0,VALID,100,VALID,-0.0509425,VALID,19.3397,VALID,89,VALID,0,
2008-10-11, 02:33:00,VALID,916.736,VALID,0,VALID,100,VALID,-0.0339617,VALID,19.3324,VALID,89,VALID,0,
2008-10-11, 02:34:00,VALID,916.724,VALID,0,VALID,100,VALID,0,VALID,19.3494,VALID,89,VALID,0,
2008-10-11, 02:35:00,VALID,916.726,VALID,0,VALID,100,VALID,0,VALID,19.3489,VALID,89,VALID,0,
2008-10-11, 02:36:00,VALID,916.741,VALID,0,VALID,100,VALID,-0.0509425,VALID,19.3457,VALID,89,VALID,0,
2008-10-11, 02:37:00,VALID,916.742,VALID,0,VALID,100,VALID,-0.0169808,VALID,19.3457,VALID,89,VALID,0,
2008-10-11, 02:38:00,VALID,916.74,VALID,0,VALID,100,VALID,-0.0169808,VALID,19.3556,VALID,89,VALID,0,
2008-10-11, 02:39:00,VALID,916.745,VALID,0,VALID,100,VALID,-0.0339617,VALID,19.3554,VALID,98,VALID,0,
2008-10-11, 02:40:00,VALID,916.727,VALID,0,VALID,100,VALID,0,VALID,19.3816,VALID,99,VALID,0,
2008-10-11, 02:41:00,VALID,916.716,VALID,0,VALID,100,VALID,-0.0169808,VALID,19.3814,VALID,105,VALID,0,
2008-10-11, 02:42:00,VALID,916.719,VALID,0,VALID,100,VALID,-0.0169808,VALID,19.4011,VALID,108,VALID,0,
2008-10-11, 02:43:00,VALID,916.701,VALID,0,VALID,100,VALID,0,VALID,19.414,VALID,118,VALID,0,
2008-10-11, 02:44:00,VALID,916.682,VALID,0,VALID,100,VALID,0,VALID,19.4235,VALID,128,VALID,0,
2008-10-11, 02:45:00,VALID,916.664,VALID,0,VALID,100,VALID,-0.0509425,VALID,19.4268,VALID,166,VALID,0,
2008-10-11, 02:46:00,VALID,916.644,VALID,0,VALID,100,VALID,-0.0509425,VALID,19.4397,VALID,150,VALID,0,
2008-10-11, 02:47:00,VALID,916.63,VALID,0,VALID,100,VALID,-0.0509425,VALID,19.4435,VALID,127,VALID,0,
2008-10-11, 02:48:00,VALID,916.617,VALID,0,VALID,100,VALID,-0.0339617,VALID,19.414,VALID,120,VALID,0.769354,
2008-10-11, 02:49:00,VALID,916.613,VALID,0,VALID,100,VALID,-0.0169808,VALID,19.3811,VALID,117,VALID,0.798633,
2008-10-11, 02:50:00,VALID,916.616,VALID,0,VALID,100,VALID,0,VALID,19.3554,VALID,123,VALID,1.20977,
2008-10-11, 02:51:00,VALID,916.579,VALID,0,VALID,100,VALID,-0.0169808,VALID,19.3447,VALID,115,VALID,0.757813,
2008-10-11, 02:52:00,VALID,916.576,VALID,0,VALID,100,VALID,-0.0169808,VALID,19.3394,VALID,97,VALID,1.04364,
2008-10-11, 02:53:00,VALID,916.567,VALID,0,VALID,100,VALID,0.0169808,VALID,19.3197,VALID,80,VALID,0.317522,
2008-10-11, 02:54:00,VALID,916.554,VALID,0,VALID,100,VALID,0,VALID,19.307,VALID,62,VALID,0.486607,
2008-10-11, 02:55:00,VALID,916.55,VALID,0,VALID,100,VALID,-0.0339617,VALID,19.2708,VALID,58,VALID,0,
2008-10-11, 02:56:00,VALID,916.545,VALID,0,VALID,100,VALID,-0.0169808,VALID,19.2518,VALID,56,VALID,1.256,
2008-10-11, 02:57:00,VALID,916.541,VALID,0,VALID,100,VALID,-0.0339617,VALID,19.2321,VALID,67,VALID,0.618075,
2008-10-11, 02:58:00,VALID,916.523,VALID,0,VALID,100,VALID,-0.0169808,VALID,19.2094,VALID,77,VALID,0.832849,
2008-10-11, 02:59:00,VALID,916.533,VALID,0,VALID,100,VALID,0,VALID,19.1832,VALID,83,VALID,0.844367,
2008-10-11, 03:00:00,VALID,916.537,VALID,0,VALID,100,VALID,-0.0509425,VALID,19.1902,VALID,67,VALID,0.10556,
2008-10-11, 03:01:00,VALID,916.561,VALID,0,VALID,100,VALID,-0.0679233,VALID,19.2067,VALID,61,VALID,0,
2008-10-11, 03:02:00,VALID,916.564,VALID,0,VALID,100,VALID,-0.0169808,VALID,19.1934,VALID,66,VALID,0.0579268,
2008-10-11, 03:03:00,VALID,916.583,VALID,0,VALID,100,VALID,-0.0339617,VALID,19.1805,VALID,88,VALID,0.00855655,
2008-10-11, 03:04:00,VALID,916.589,VALID,0,VALID,100,VALID,-0.0849042,VALID,19.1575,VALID,88,VALID,0,
2008-10-11, 03:05:00,VALID,916.591,VALID,0,VALID,100,VALID,-0.0679233,VALID,19.161,VALID,88,VALID,0,
2008-10-11, 03:06:00,VALID,916.588,VALID,0,VALID,100,VALID,-0.118866,VALID,19.1251,VALID,88,VALID,0,
2008-10-11, 03:07:00,VALID,916.587,VALID,0,VALID,100,VALID,-0.101885,VALID,19.1255,VALID,86,VALID,0,
2008-10-11, 03:08:00,VALID,916.599,VALID,0,VALID,100,VALID,-0.118866,VALID,19.1195,VALID,85,VALID,0,
2008-10-11, 03:09:00,VALID,916.6,VALID,0,VALID,100,VALID,-0.0849042,VALID,19.0926,VALID,85,VALID,0,
2008-10-11, 03:10:00,VALID,916.609,VALID,0,VALID,100,VALID,-0.0679233,VALID,19.0766,VALID,85,VALID,0,
2008-10-11, 03:11:00,VALID,916.628,VALID,0,VALID,100,VALID,-0.0679233,VALID,19.0602,VALID,87,VALID,0,
2008-10-11, 03:12:00,VALID,916.64,VALID,0,VALID,100,VALID,-0.0679233,VALID,19.0472,VALID,95,VALID,0,
2008-10-11, 03:13:00,VALID,916.65,VALID,0,VALID,100,VALID,-0.0509425,VALID,19.044,VALID,113,VALID,0,
2008-10-11, 03:14:00,VALID,916.65,VALID,0,VALID,100,VALID,-0.0679233,VALID,19.0569,VALID,118,VALID,0,
2008-10-11, 03:15:00,VALID,916.647,VALID,0,VALID,100,VALID,-0.0849042,VALID,19.0739,VALID,135,VALID,0,
2008-10-11, 03:16:00,VALID,916.648,VALID,0,VALID,100,VALID,-0.0509425,VALID,19.0799,VALID,150,VALID,0.10174,
2008-10-11, 03:17:00,VALID,916.649,VALID,0,VALID,100,VALID,-0.101885,VALID,19.1126,VALID,150,VALID,0.658296,
2008-10-11, 03:18:00,VALID,916.649,VALID,0,VALID,100,VALID,-0.0509425,VALID,19.1448,VALID,160,VALID,0.582122,
2008-10-11, 03:19:00,VALID,916.645,VALID,0,VALID,100,VALID,-0.0339617,VALID,19.167,VALID,170,VALID,0.475291,
2008-10-11, 03:20:00,VALID,916.654,VALID,0,VALID,100,VALID,0.0169808,VALID,19.1957,VALID,143,VALID,0.0421113,
2008-10-11, 03:21:00,VALID,916.639,VALID,0,VALID,100,VALID,0,VALID,19.2154,VALID,158,VALID,1.03627,
2008-10-11, 03:22:00,VALID,916.626,VALID,0,VALID,100,VALID,0,VALID,19.2316,VALID,157,VALID,0.975361,
2008-10-11, 03:23:00,VALID,916.613,VALID,0,VALID,100,VALID,0.0339617,VALID,19.2341,VALID,166,VALID,0.771662,
2008-10-11, 03:24:01,VALID,916.589,VALID,0,VALID,100,VALID,0.0169808,VALID,19.2601,VALID,164,VALID,0.655878,
2008-10-11, 03:25:00,VALID,916.571,VALID,0,VALID,100,VALID,0,VALID,19.2698,VALID,164,VALID,0.812119,
2008-10-11, 03:26:00,VALID,916.573,VALID,0,VALID,100,VALID,0.0339617,VALID,19.2826,VALID,152,VALID,0.94549,
2008-10-11, 03:27:00,VALID,916.578,VALID,0,VALID,100,VALID,0,VALID,19.289,VALID,170,VALID,1.41069,
2008-10-11, 03:28:00,VALID,916.582,VALID,0,VALID,100,VALID,0,VALID,19.2893,VALID,167,VALID,0.439732,
2008-10-11, 03:29:00,VALID,916.587,VALID,0,VALID,100,VALID,0.0169808,VALID,19.2955,VALID,173,VALID,1.3566,
2008-10-11, 03:30:01,VALID,916.578,VALID,0,VALID,100,VALID,0.0509425,VALID,19.302,VALID,161,VALID,1.86737,
2008-10-11, 03:31:00,VALID,916.554,VALID,0,VALID,100,VALID,0,VALID,19.2988,VALID,156,VALID,1.67103,
2008-10-11, 03:32:00,VALID,916.537,VALID,0,VALID,100,VALID,0.0679233,VALID,19.3118,VALID,160,VALID,0.376736,
2008-10-11, 03:33:00,VALID,916.51,VALID,0,VALID,100,VALID,0.0339617,VALID,19.3317,VALID,177,VALID,0.705729,
2008-10-11, 03:34:00,VALID,916.504,VALID,0,VALID,100,VALID,-0.0169808,VALID,19.3287,VALID,146,VALID,0.656822,
2008-10-11, 03:35:00,VALID,916.51,VALID,0,VALID,100,VALID,-0.0509425,VALID,19.3232,VALID,179,VALID,1.21466,
2008-10-11, 03:36:01,VALID,916.508,VALID,0,VALID,100,VALID,-0.0509425,VALID,19.3165,VALID,174,VALID,0.214844,
2008-10-11, 03:37:00,VALID,916.505,VALID,0,VALID,100,VALID,-0.0169808,VALID,19.3097,VALID,168,VALID,0.233073,
2008-10-11, 03:38:00,VALID,916.495,VALID,0,VALID,100,VALID,-0.0339617,VALID,19.3002,VALID,183,VALID,0,
2008-10-11, 03:39:01,VALID,916.485,VALID,0,VALID,100,VALID,-0.0339617,VALID,19.2903,VALID,168,VALID,0.152427,
2008-10-11, 03:40:01,VALID,916.467,VALID,0,VALID,100,VALID,-0.0849042,VALID,19.2875,VALID,175,VALID,0.903764,
2008-10-11, 03:41:00,VALID,916.458,VALID,0,VALID,100,VALID,-0.0849042,VALID,19.2745,VALID,171,VALID,0.235863,
2008-10-11, 03:42:00,VALID,916.431,VALID,0,VALID,100,VALID,-0.0509425,VALID,19.2678,VALID,172,VALID,1.07884,
2008-10-11, 03:43:00,VALID,916.445,VALID,0,VALID,100,VALID,-0.0339617,VALID,19.2581,VALID,166,VALID,0.539426,
2008-10-11, 03:44:00,VALID,916.435,VALID,0,VALID,100,VALID,-0.0679233,VALID,19.2578,VALID,167,VALID,0.189648,
2008-10-11, 03:45:00,VALID,916.435,VALID,0,VALID,100,VALID,-0.0679233,VALID,19.2551,VALID,164,VALID,0.0921148,
2008-10-11, 03:46:01,VALID,916.449,VALID,0,VALID,100,VALID,-0.0169808,VALID,19.2354,VALID,156,VALID,0.569222,
2008-10-11, 03:47:00,VALID,916.464,VALID,0,VALID,100,VALID,-0.0679233,VALID,19.2319,VALID,166,VALID,0.0524554,